FW4092 Weather Reports


time (UTC)temp
C
wind
direction
speed
KPH
gust
KPH
rain 1hr
cm
rain 24hr
cm
rain mn
cm
humidity
%
barometer
mb
20260506234841 25 269 16.1 30.6 0.00 0.00 0.00 33 1013.9
20260506234336 25 300 16.1 30.6 0.00 0.00 0.00 33 1013.6
20260506233828 25 329 16.1 32.2 0.00 0.00 0.00 34 1013.6
20260506233322 25 277 17.7 32.2 0.00 0.00 0.00 32 1013.6
20260506232818 26 309 14.5 29.0 0.00 0.00 0.00 32 1013.6
20260506232310 26 276 12.9 29.0 0.00 0.00 0.00 30 1013.5
20260506231804 26 294 12.9 25.7 0.00 0.00 0.00 30 1013.5
20260506231530 26 336 14.5 27.4 0.00 0.00 0.00 30 1013.6
20260506230957 26 325 16.1 29.0 0.00 0.00 0.00 30 1013.6
20260506225739 26 309 16.1 29.0 0.00 0.00 0.00 31 1013.5
20260506225236 26 264 14.5 29.0 0.00 0.00 0.00 31 1013.6
20260506224729 26 274 14.5 32.2 0.00 0.00 0.00 31 1013.6
20260506224225 26 311 14.5 32.2 0.00 0.00 0.00 31 1013.6
20260506223947 26 288 16.1 32.2 0.00 0.00 0.00 31 1013.6
20260506223213 26 261 16.1 29.0 0.00 0.00 0.00 31 1013.8
20260506222704 26 286 14.5 29.0 0.00 0.00 0.00 31 1013.8
20260506222159 26 293 14.5 29.0 0.00 0.00 0.00 31 1013.8
20260506221914 26 338 14.5 29.0 0.00 0.00 0.00 31 1013.9
20260506221146 26 266 12.9 27.4 0.00 0.00 0.00 31 1013.9
20260506220645 26 272 14.5 25.7 0.00 0.00 0.00 31 1013.8
20260506220135 27 315 14.5 25.7 0.00 0.00 0.00 31 1013.8
20260506215732 27 249 14.5 25.7 0.00 0.00 0.00 29 1013.9
20260506215726 27 288 14.5 25.7 0.00 0.00 0.00 30 1013.9
20260506214618 27 295 12.9 25.7 0.00 0.00 0.00 30 1013.8
20260506214110 27 313 11.3 24.1 0.00 0.00 0.00 29 1013.8
20260506213604 27 325 12.9 22.5 0.00 0.00 0.00 29 1013.9
20260506213058 27 292 11.3 22.5 0.00 0.00 0.00 28 1013.9
20260506212816 27 273 11.3 24.1 0.00 0.00 0.00 29 1013.9
20260506212555 27 273 11.3 24.1 0.00 0.00 0.00 29 1013.9
20260506212049 27 243 11.3 24.1 0.00 0.00 0.00 27 1013.9
20260506211817 27 316 9.7 19.3 0.00 0.00 0.00 26 1013.8
20260506211307 27 248 9.7 19.3 0.00 0.00 0.00 28 1013.9
20260506210528 27 291 6.4 19.3 0.00 0.00 0.00 27 1013.9
20260506210022 27 334 6.4 16.1 0.00 0.00 0.00 27 1013.9
20260506205518 27 322 6.4 17.7 0.00 0.00 0.00 27 1014.0
20260506205018 27 327 6.4 17.7 0.00 0.00 0.00 26 1014.0
20260506204518 27 318 6.4 17.7 0.00 0.00 0.00 26 1014.1
20260506204021 26 316 6.4 19.3 0.00 0.00 0.00 27 1014.1
20260506203519 26 219 6.4 19.3 0.00 0.00 0.00 26 1014.2
20260506203019 26 315 6.4 14.5 0.00 0.00 0.00 26 1014.2
20260506202825 27 12 8.0 17.7 0.00 0.00 0.00 26 1014.2
20260506202821 27 355 8.0 17.7 0.00 0.00 0.00 26 1014.3
20260506201516 26 254 6.4 16.1 0.00 0.00 0.00 27 1014.2
20260506201300 26 331 4.8 20.9 0.00 0.00 0.00 29 1014.2
20260506200758 26 17 6.4 20.9 0.00 0.00 0.00 29 1014.2
20260506200017 26 276 8.0 20.9 0.00 0.00 0.00 28 1014.4
20260506195512 26 298 6.4 17.7 0.00 0.00 0.00 27 1014.4
20260506195012 26 350 8.0 24.1 0.00 0.00 0.00 28 1014.4
20260506194512 25 244 8.0 24.1 0.00 0.00 0.00 29 1014.4
20260506194257 25 219 6.4 20.9 0.00 0.00 0.00 29 1014.6
20260506193512 25 303 6.4 14.5 0.00 0.00 0.00 31 1014.7
20260506193258 25 262 9.7 17.7 0.00 0.00 0.00 30 1014.8
20260506192758 25 226 9.7 17.7 0.00 0.00 0.00 30 1015.0
20260506192025 25 263 9.7 25.7 0.00 0.00 0.00 31 1014.8
20260506192011 25 215 9.7 20.9 0.00 0.00 0.00 31 1014.8
20260506191010 25 301 8.0 25.7 0.00 0.00 0.00 31 1014.8
20260506190518 25 241 8.0 19.3 0.00 0.00 0.00 32 1015.0
20260506190011 25 290 6.4 17.7 0.00 0.00 0.00 31 1015.1
20260506185744 25 265 4.8 17.7 0.00 0.00 0.00 30 1015.1
20260506185011 25 130 6.4 16.1 0.00 0.00 0.00 31 1015.0
20260506184510 25 233 6.4 16.1 0.00 0.00 0.00 31 1015.2
20260506184009 25 242 4.8 12.9 0.00 0.00 0.00 31 1015.1
20260506183509 25 140 3.2 12.9 0.00 0.00 0.00 34 1015.1
20260506183009 25 117 3.2 8.0 0.00 0.00 0.00 33 1015.1
20260506182510 24 83 3.2 11.3 0.00 0.00 0.00 34 1015.2
20260506182010 24 252 3.2 11.3 0.00 0.00 0.00 34 1015.2
20260506181510 24 74 1.6 6.4 0.00 0.00 0.00 36 1015.2
20260506181010 23 86 3.2 8.0 0.00 0.00 0.00 36 1015.3
20260506180507 23 11 1.6 8.0 0.00 0.00 0.00 38 1015.4
20260506180248 23 315 3.2 8.0 0.00 0.00 0.00 38 1015.4
20260506175515 23 277 3.2 8.0 0.00 0.00 0.00 38 1015.5
20260506175008 23 32 1.6 8.0 0.00 0.00 0.00 38 1015.5
20260506174717 23 312 3.2 8.0 0.00 0.00 0.00 38 1015.4
20260506174011 22 56 1.6 6.4 0.00 0.00 0.00 39 1015.4
20260506174008 23 75 3.2 8.0 0.00 0.00 0.00 40 1015.5
20260506172943 22 29 1.6 6.4 0.00 0.00 0.00 39 1015.4
20260506172434 23 13 1.6 6.4 0.00 0.00 0.00 39 1015.5
20260506172204 22 84 3.2 6.4 0.00 0.00 0.00 41 1015.5
20260506171422 22 127 3.2 9.7 0.00 0.00 0.00 41 1015.4
20260506170921 22 102 3.2 9.7 0.00 0.00 0.00 43 1015.4
20260506170642 21 132 1.6 6.4 0.00 0.00 0.00 44 1015.5
20260506165907 21 140 1.6 6.4 0.00 0.00 0.00 45 1015.6
20260506165359 20 194 1.6 6.4 0.00 0.00 0.00 46 1015.6
20260506165113 20 218 3.2 6.4 0.00 0.00 0.00 45 1015.6
20260506164346 20 308 1.6 6.4 0.00 0.00 0.00 47 1015.6
20260506163840 20 289 3.2 9.7 0.00 0.00 0.00 47 1015.6
20260506163334 20 283 3.2 9.7 0.00 0.00 0.00 49 1015.6
20260506163105 19 350 1.6 6.4 0.00 0.00 0.00 50 1015.6
20260506162321 19 257 3.2 6.4 0.00 0.00 0.00 51 1015.7
20260506161816 18 237 1.6 9.7 0.00 0.00 0.00 52 1015.7
20260506161533 18 237 1.6 4.8 0.00 0.00 0.00 53 1015.7
20260506161313 18 237 1.6 4.8 0.00 0.00 0.00 53 1015.7
20260506160809 18 97 1.6 6.4 0.00 0.00 0.00 54 1015.7
20260506160259 18 96 1.6 6.4 0.00 0.00 0.00 53 1015.8
20260506160012 18 108 0.0 4.8 0.00 0.00 0.00 55 1015.7
20260506155247 18 121 0.0 0.0 0.00 0.00 0.00 55 1015.7
20260506154741 17 121 0.0 3.2 0.00 0.00 0.00 56 1015.6
20260506154234 17 123 1.6 4.8 0.00 0.00 0.00 57 1015.7
20260506153734 16 124 1.6 4.8 0.00 0.00 0.00 59 1015.7
20260506153226 16 125 1.6 4.8 0.00 0.00 0.00 60 1015.7
20260506152720 15 140 1.6 4.8 0.00 0.00 0.00 60 1015.7
20260506152448 15 141 3.2 9.7 0.00 0.00 0.00 62 1015.8
20260506151706 15 123 3.2 9.7 0.00 0.00 0.00 63 1015.7
20260506151200 14 130 4.8 11.3 0.00 0.00 0.00 64 1015.7
20260506150657 13 134 4.8 12.9 0.00 0.00 0.00 66 1015.6
20260506150204 13 135 4.8 9.7 0.00 0.00 0.00 68 1015.6
20260506150159 13 124 4.8 12.9 0.00 0.00 0.00 66 1015.5
20260506145159 12 159 4.8 9.7 0.00 0.00 0.00 69 1015.5
20260506144703 12 128 4.8 12.9 0.00 0.00 0.00 71 1015.5
20260506144658 12 141 4.8 9.7 0.00 0.00 0.00 70 1015.6
20260506144446 12 128 4.8 12.9 0.00 0.00 0.00 71 1015.5
20260506143701 11 165 6.4 12.9 0.00 0.00 0.00 72 1015.4
20260506143159 11 140 4.8 12.9 0.00 0.00 0.00 73 1015.4
20260506142657 11 150 6.4 12.9 0.00 0.00 0.00 73 1015.3
20260506142200 11 160 6.4 14.5 0.00 0.00 0.00 74 1015.3
20260506141657 10 143 6.4 14.5 0.00 0.00 0.00 74 1015.2
20260506141159 10 161 6.4 12.9 0.00 0.00 0.00 75 1015.2
20260506140920 10 150 6.4 12.9 0.00 0.00 0.00 75 1015.1
20260506140159 10 150 6.4 16.1 0.00 0.00 0.00 76 1015.1
20260506135657 10 157 6.4 16.1 0.00 0.00 0.00 76 1015.0
20260506135158 10 142 6.4 14.5 0.00 0.00 0.00 76 1015.0
20260506134659 10 146 6.4 14.5 0.00 0.00 0.00 77 1014.8
20260506134158 10 144 6.4 14.5 0.00 0.00 0.00 77 1014.8
20260506133657 10 132 6.4 14.5 0.00 0.00 0.00 77 1014.7
20260506133438 10 134 6.4 14.5 0.00 0.00 0.00 77 1014.7
20260506132942 10 137 6.4 12.9 0.00 0.00 0.00 77 1014.6
20260506132158 10 149 6.4 14.5 0.00 0.00 0.00 77 1014.7
20260506131707 9 156 8.0 16.1 0.00 0.00 0.00 77 1014.6
20260506131446 9 151 6.4 16.1 0.00 0.00 0.00 78 1014.5
20260506130701 9 148 6.4 14.5 0.00 0.00 0.00 78 1014.5
20260506130159 9 131 6.4 12.9 0.00 0.00 0.00 77 1014.4
20260506125658 9 145 6.4 14.5 0.00 0.00 0.00 77 1014.4
20260506125414 9 151 4.8 14.5 0.00 0.00 0.00 76 1014.4
20260506124916 9 146 3.2 11.3 0.00 0.00 0.00 76 1014.5
20260506124416 9 161 3.2 9.7 0.00 0.00 0.00 76 1014.5
20260506123657 9 153 3.2 9.7 0.00 0.00 0.00 76 1014.5
20260506123416 10 138 3.2 11.3 0.00 0.00 0.00 76 1014.4
20260506122656 10 153 4.8 11.3 0.00 0.00 0.00 76 1014.4
20260506122151 10 146 4.8 11.3 0.00 0.00 0.00 76 1014.3
20260506121645 10 136 4.8 9.7 0.00 0.00 0.00 76 1014.3
20260506121420 10 145 4.8 11.3 0.00 0.00 0.00 76 1014.3
20260506120632 10 143 4.8 12.9 0.00 0.00 0.00 75 1014.2
20260506120409 10 143 6.4 12.9 0.00 0.00 0.00 75 1014.2
20260506115911 10 144 6.4 11.3 0.00 0.00 0.00 75 1014.1
20260506115113 10 140 4.8 11.3 0.00 0.00 0.00 75 1014.1
20260506114608 10 136 4.8 8.0 0.00 0.00 0.00 74 1014.1
20260506114102 10 140 4.8 8.0 0.00 0.00 0.00 74 1014.1
20260506113600 10 144 4.8 6.4 0.00 0.00 0.00 73 1014.0
20260506113050 10 139 3.2 6.4 0.00 0.00 0.00 73 1013.9
20260506112825 10 142 1.6 4.8 0.00 0.00 0.00 74 1013.9
20260506112041 10 143 0.0 4.8 0.00 0.00 0.00 73 1013.9
20260506111532 11 143 1.6 6.4 0.00 0.00 0.00 72 1013.9
20260506111026 11 144 1.6 6.4 0.00 0.00 0.00 71 1013.6
20260506110520 12 169 0.0 3.2 0.00 0.00 0.00 69 1013.6
20260506110014 12 169 0.0 0.0 0.00 0.00 0.00 69 1013.6
20260506105509 12 169 0.0 0.0 0.00 0.00 0.00 67 1013.8
20260506105003 12 169 0.0 0.0 0.00 0.00 0.00 67 1013.8
20260506104728 12 169 0.0 0.0 0.00 0.00 0.00 67 1013.8
20260506103950 12 169 0.0 1.6 0.00 0.00 0.00 67 1013.6
20260506103450 13 169 0.0 3.2 0.00 0.00 0.00 66 1013.5
20260506102951 13 169 0.0 4.8 0.00 0.00 0.00 67 1013.5
20260506102451 13 171 0.0 4.8 0.00 0.00 0.00 67 1013.5
20260506101953 13 182 1.6 8.0 0.00 0.00 0.00 67 1013.5
20260506101456 13 182 4.8 9.7 0.00 0.00 0.00 68 1013.5
20260506100946 13 188 3.2 9.7 0.00 0.00 0.00 69 1013.4
20260506100447 13 186 3.2 6.4 0.00 0.00 0.00 70 1013.4
20260506095944 13 188 3.2 6.4 0.00 0.00 0.00 70 1013.4
20260506095445 13 203 4.8 8.0 0.00 0.00 0.00 71 1013.4
20260506094947 13 203 3.2 8.0 0.00 0.00 0.00 72 1013.4
20260506094444 13 216 1.6 6.4 0.00 0.00 0.00 72 1013.4
20260506093944 13 216 0.0 3.2 0.00 0.00 0.00 72 1013.4
20260506093444 13 216 0.0 0.0 0.00 0.00 0.00 72 1013.3
20260506092946 13 216 0.0 0.0 0.00 0.00 0.00 71 1013.4
20260506092454 13 216 0.0 3.2 0.00 0.00 0.00 71 1013.4
20260506092220 13 216 1.6 3.2 0.00 0.00 0.00 71 1013.3
20260506091442 13 216 1.6 4.8 0.00 0.00 0.00 71 1013.3
20260506090942 14 218 1.6 4.8 0.00 0.00 0.00 71 1013.3
20260506090436 14 240 1.6 3.2 0.00 0.00 0.00 71 1013.2
20260506085931 14 242 1.6 3.2 0.00 0.00 0.00 70 1013.2
20260506085424 14 242 1.6 4.8 0.00 0.00 0.00 70 1013.3
20260506084923 14 242 1.6 4.8 0.00 0.00 0.00 70 1013.2
20260506084654 14 242 3.2 4.8 0.00 0.00 0.00 70 1013.3
20260506083922 14 244 3.2 4.8 0.00 0.00 0.00 69 1013.2
20260506083422 14 245 3.2 4.8 0.00 0.00 0.00 69 1013.3
20260506082922 14 252 3.2 4.8 0.00 0.00 0.00 68 1013.3
20260506082702 15 259 1.6 4.8 0.00 0.00 0.00 68 1013.3
20260506081923 15 262 1.6 4.8 0.00 0.00 0.00 68 1013.2
20260506081423 15 263 1.6 4.8 0.00 0.00 0.00 67 1013.3
20260506080923 15 263 0.0 3.2 0.00 0.00 0.00 68 1013.2
20260506080421 15 263 0.0 0.0 0.00 0.00 0.00 68 1013.2
20260506073422 15 265 0.0 0.0 0.00 0.00 0.00 67 1012.9
20260506072922 15 264 0.0 0.0 0.00 0.00 0.00 67 1012.9
20260506072701 15 264 0.0 0.0 0.00 0.00 0.00 67 1012.8
20260506072143 15 264 0.0 0.0 0.00 0.00 0.00 66 1012.8
20260506071409 15 264 0.0 0.0 0.00 0.00 0.00 66 1012.7
20260506070905 15 264 0.0 0.0 0.00 0.00 0.00 66 1012.6
20260506070355 15 264 0.0 0.0 0.00 0.00 0.00 65 1012.6
20260506062307 16 264 0.0 1.6 0.00 0.00 0.00 62 1012.3
20260506061802 17 264 0.0 1.6 0.00 0.00 0.00 62 1012.3
20260506061253 17 264 1.6 4.8 0.00 0.00 0.00 61 1012.2
20260506061038 17 265 1.6 4.8 0.00 0.00 0.00 61 1012.2
20260506060241 17 267 1.6 4.8 0.00 0.00 0.00 61 1012.1
20260506051141 18 296 3.2 11.3 0.00 0.00 0.00 59 1011.6
20260506050636 18 278 3.2 11.3 0.00 0.00 0.00 59 1011.6
20260506050425 18 276 3.2 11.3 0.00 0.00 0.00 59 1011.6
20260506045118 19 294 6.4 11.3 0.00 0.00 0.00 59 1011.5
20260506044853 19 267 6.4 11.3 0.00 0.00 0.00 59 1011.4
20260506044104 19 260 6.4 11.3 0.00 0.00 0.00 58 1011.3
20260506043558 19 279 4.8 11.3 0.00 0.00 0.00 57 1011.3
20260506043053 19 300 4.8 11.3 0.00 0.00 0.00 56 1011.3
20260506042600 20 271 3.2 8.0 0.00 0.00 0.00 54 1011.1
20260506041534 20 296 4.8 11.3 0.00 0.00 0.00 52 1011.0
20260506041029 20 281 4.8 11.3 0.00 0.00 0.00 52 1010.9
20260506040808 20 288 3.2 6.4 0.00 0.00 0.00 50 1010.9
20260506040303 20 298 1.6 4.8 0.00 0.00 0.00 48 1010.8
20260506035511 20 303 0.0 4.8 0.00 0.00 0.00 47 1010.7
20260506035005 20 304 0.0 1.6 0.00 0.00 0.00 47 1010.7
20260506034501 20 304 0.0 3.2 0.00 0.00 0.00 47 1010.6
20260506033953 20 304 0.0 3.2 0.00 0.00 0.00 46 1010.5
20260506033448 20 304 0.0 3.2 0.00 0.00 0.00 45 1010.3
20260506032941 21 304 0.0 1.6 0.00 0.00 0.00 45 1010.3
20260506032725 21 304 0.0 3.2 0.00 0.00 0.00 44 1010.3
20260506031929 21 304 0.0 3.2 0.00 0.00 0.00 43 1010.2
20260506031423 22 304 1.6 4.8 0.00 0.00 0.00 42 1010.2
20260506030918 22 306 3.2 8.0 0.00 0.00 0.00 42 1010.2
20260506030648 22 306 3.2 8.0 0.00 0.00 0.00 41 1010.2
20260506030148 23 304 4.8 8.0 0.00 0.00 0.00 41 1010.1
20260506025401 23 304 4.8 11.3 0.00 0.00 0.00 40 1010.1
20260506024853 23 300 4.8 11.3 0.00 0.00 0.00 40 1010.1
20260506024351 23 324 3.2 11.3 0.00 0.00 0.00 39 1009.9
20260506024141 23 313 3.2 8.0 0.00 0.00 0.00 39 1009.9
20260506023636 23 325 4.8 11.3 0.00 0.00 0.00 38 1009.9
20260506023145 23 296 4.8 14.5 0.00 0.00 0.00 37 1009.8
20260506022422 24 342 3.2 9.7 0.00 0.00 0.00 33 1009.8
20260506022352 24 348 4.8 14.5 0.00 0.00 0.00 35 1009.8
20260506022156 24 344 3.2 12.9 0.00 0.00 0.00 34 1009.7
20260506021352 24 344 3.2 12.9 0.00 0.00 0.00 34 1009.7
20260506020852 24 38 4.8 14.5 0.00 0.00 0.00 34 1009.7
20260506020351 24 19 4.8 14.5 0.00 0.00 0.00 33 1009.7
20260506015847 24 54 4.8 12.9 0.00 0.00 0.00 33 1009.7
20260506015347 25 351 4.8 14.5 0.00 0.00 0.00 33 1009.6
20260506014847 25 355 3.2 14.5 0.00 0.00 0.00 33 1009.6
20260506014348 25 29 4.8 14.5 0.00 0.00 0.00 33 1009.6
20260506013848 25 32 6.4 17.7 0.00 0.00 0.00 32 1009.6
20260506013347 25 337 6.4 22.5 0.00 0.00 0.00 31 1009.6
20260506012851 26 344 6.4 22.5 0.00 0.00 0.00 32 1009.6
20260506012349 26 53 4.8 17.7 0.00 0.00 0.00 31 1009.4
20260506011850 26 46 4.8 17.7 0.00 0.00 0.00 32 1009.5
20260506011341 26 54 4.8 16.1 0.00 0.00 0.00 32 1009.5
20260506010836 26 19 6.4 16.1 0.00 0.00 0.00 32 1009.5
20260506010403 26 333 8.0 19.3 0.00 0.00 0.00 31 1009.3
20260506010348 26 346 9.7 19.3 0.00 0.00 0.00 32 1009.4
20260506005318 26 355 4.8 12.9 0.00 0.00 0.00 32 1009.3
20260506004811 26 51 4.8 14.5 0.00 0.00 0.00 32 1009.4
20260506004304 26 13 6.4 16.1 0.00 0.00 0.00 32 1009.4
20260506004040 26 351 6.4 16.1 0.00 0.00 0.00 31 1009.3
20260506003252 27 333 4.8 16.1 0.00 0.00 0.00 31 1009.2
20260506002746 27 355 4.8 16.1 0.00 0.00 0.00 31 1009.2
20260506002528 27 58 6.4 22.5 0.00 0.00 0.00 31 1009.2
20260506002007 27 42 6.4 22.5 0.00 0.00 0.00 30 1009.2
20260506001228 27 324 8.0 17.7 0.00 0.00 0.00 30 1009.2
20260506000722 27 43 8.0 20.9 0.00 0.00 0.00 30 1009.2
20260506000221 27 12 6.4 20.9 0.00 0.00 0.00 30 1009.1
20260505235710 27 24 8.0 17.7 0.00 0.00 0.00 30 1009.2
20260505235443 27 11 8.0 19.3 0.00 0.00 0.00 30 1009.3